Location: Black Forest
(43.4794°N, 75.0081°W)
Time: 22:36:08
(UTC-04:00)

ISS - Visible Passes

Search period start: 28 July 2014 00:00
Search period end: 07 August 2014 00:00
Orbit: 411 x 420 km, 51.6° (Epoch: 28 July)

Date Brightness Start Highest point End Pass type
(mag) Time Alt. Az. Time Alt. Az. Time Alt. Az.
28 Jul -0.4 01:25:42 15° NE 01:25:42 15° NE 01:26:24 10° NE visible
28 Jul -0.8 02:58:34 15° NW 03:00:20 21° N 03:03:01 10° NE visible
28 Jul -0.8 04:35:03 10° NW 04:37:51 24° NNE 04:40:39 10° ENE visible
29 Jul -1.0 02:11:22 24° NNW 02:11:22 24° NNW 02:14:10 10° NE visible
29 Jul -0.7 03:46:12 10° NW 03:48:50 21° N 03:51:29 10° ENE visible
30 Jul -0.5 01:24:12 18° NNE 01:24:12 18° NNE 01:25:23 10° NE visible
30 Jul -0.6 02:57:15 10° NW 02:59:49 20° N 03:02:23 10° NE visible
30 Jul -1.5 04:34:04 10° NW 04:37:13 35° NNE 04:40:20 10° E visible
31 Jul -0.7 02:09:56 18° NNW 02:10:46 20° N 02:13:21 10° NE visible
31 Jul -1.1 03:45:18 10° NW 03:48:15 27° NNE 03:51:12 10° ENE visible
01 Aug -0.4 01:22:54 18° NNE 01:22:54 18° NNE 01:24:26 10° NE visible
01 Aug -0.8 02:56:30 10° NW 02:59:15 23° N 03:02:00 10° ENE visible
01 Aug -3.0 04:33:02 10° NW 04:36:24 70° NNE 04:39:45 10° ESE visible
02 Aug -0.6 02:09:05 18° NNW 02:10:13 21° N 02:12:50 10° ENE visible
02 Aug -2.2 03:44:15 10° NW 03:47:31 46° NNE 03:50:46 10° E visible
02 Aug -3.2 22:03:39 10° SW 22:06:53 51° SE 22:08:04 32° E visible
02 Aug -0.4 23:40:42 10° W 23:41:13 13° W 23:41:13 13° W visible
03 Aug -0.1 01:23:20 12° NE 01:23:20 12° NE 01:23:43 10° NE visible
03 Aug -1.5 02:56:21 16° NW 02:58:35 33° NNE 03:01:40 10° E visible
03 Aug -3.0 04:32:09 10° WNW 04:35:23 46° SW 04:38:37 10° SE visible
03 Aug -2.4 21:15:13 10° SSW 21:18:09 29° SE 21:21:07 10° ENE visible
03 Aug -2.1 22:51:35 10° W 22:54:47 43° NNW 22:57:06 17° NE visible
04 Aug -0.2 00:29:31 10° NW 00:30:05 13° NW 00:30:05 13° NW visible
04 Aug -3.4 03:46:08 63° WNW 03:46:36 79° SW 03:49:57 10° SE visible
04 Aug -1.2 05:22:03 10° WSW 05:22:47 11° SW 05:23:31 10° SW visible
04 Aug -2.9 22:02:34 10° WSW 22:05:52 65° NNW 22:09:13 10° NE visible
04 Aug -0.8 23:40:21 10° WNW 23:43:03 22° N 23:43:55 20° NNE visible
05 Aug -3.4 21:13:42 10° SW 21:17:01 78° SE 21:20:22 10° ENE visible
05 Aug -1.0 22:51:08 10° WNW 22:54:01 26° NNW 22:56:55 10° NE visible
06 Aug -0.2 00:28:55 10° NW 00:29:55 15° NNW 00:29:55 15° NNW visible
06 Aug -1.5 22:01:57 10° W 22:05:01 33° NNW 22:08:06 10° NE visible
06 Aug -0.7 23:39:53 10° NW 23:42:26 20° N 23:42:49 19° N visible
